owner,sensor,date,latitude,longitude,vertical_datum,sea_water_practical_salinity,qcFlag 
SCCF RECON,ioos:station:SCCF:12:1,2008-10-09T15:00:00Z,26.4966,-82.1479,2.432,29.79,1111122 
SCCF RECON,ioos:station:SCCF:12:1,2008-10-09T16:00:00Z,26.4966,-82.1479,2.37,29.7,1111122 
SCCF RECON,ioos:station:SCCF:12:1,2008-10-09T17:00:00Z,26.4966,-82.1479,2.27,29.19,1111122 
SCCF RECON,ioos:station:SCCF:12:1,2008-10-09T18:00:00Z,26.4966,-82.1479,2.16,29.07,1111122 
SCCF RECON,ioos:station:SCCF:12:1,2008-10-09T19:00:00Z,26.4966,-82.1479,2.06,27.28,1111122 
SCCF RECON,ioos:station:SCCF:12:1,2008-10-09T20:00:00Z,26.4966,-82.1479,1.985,29.51,1111122 
SCCF RECON,ioos:station:SCCF:12:1,2008-10-09T21:00:00Z,26.4966,-82.1479,1.958,31.22,1111122 
SCCF RECON,ioos:station:SCCF:12:1,2008-10-09T22:00:00Z,26.4966,-82.1479,2.01,31.99,1111122 
SCCF RECON,ioos:station:SCCF:12:1,2008-10-09T23:00:00Z,26.4966,-82.1479,2.12,32.02,1111122 
SCCF RECON,ioos:station:SCCF:12:1,2008-10-10T00:00:00Z,26.4966,-82.1479,2.23,31.23,1111122 
SCCF RECON,ioos:station:SCCF:12:1,2008-10-10T01:00:00Z,26.4966,-82.1479,2.338,30.6,1111122 
SCCF RECON,ioos:station:SCCF:12:1,2008-10-10T02:00:00Z,26.4966,-82.1479,2.41,29.24,1111122 
SCCF RECON,ioos:station:SCCF:12:1,2008-10-10T03:00:00Z,26.4966,-82.1479,2.45,27.97,1111122 
SCCF RECON,ioos:station:SCCF:12:1,2008-10-10T04:00:00Z,26.4966,-82.1479,2.45,29.03,1111122 
SCCF RECON,ioos:station:SCCF:12:1,2008-10-10T05:00:00Z,26.4966,-82.1479,2.39,28.31,1111122 
SCCF RECON,ioos:station:SCCF:12:1,2008-10-10T06:00:00Z,26.4966,-82.1479,2.34,29.04,1111122 
SCCF RECON,ioos:station:SCCF:12:1,2008-10-10T07:00:00Z,26.4966,-82.1479,2.28,29.15,1111122 
SCCF RECON,ioos:station:SCCF:12:1,2008-10-10T08:00:00Z,26.4966,-82.1479,2.23,29.17,1111122 
SCCF RECON,ioos:station:SCCF:12:1,2008-10-10T09:00:00Z,26.4966,-82.1479,2.21,29.32,1111122 
SCCF RECON,ioos:station:SCCF:12:1,2008-10-10T10:00:00Z,26.4966,-82.1479,2.25,29.5,1111122 
SCCF RECON,ioos:station:SCCF:12:1,2008-10-10T11:00:00Z,26.4966,-82.1479,2.341,30.94,1111122 
SCCF RECON,ioos:station:SCCF:12:1,2008-10-10T12:00:00Z,26.4966,-82.1479,2.42,29.47,1111122 
SCCF RECON,ioos:station:SCCF:12:1,2008-10-10T13:00:00Z,26.4966,-82.1479,2.47,30.92,1111122 
SCCF RECON,ioos:station:SCCF:12:1,2008-10-10T14:00:00Z,26.4966,-82.1479,2.49,30.6,1111122 
SCCF RECON,ioos:station:SCCF:12:1,2008-10-10T15:00:00Z,26.4966,-82.1479,2.464,30.27,1111122 
SCCF RECON,ioos:station:SCCF:12:1,2008-10-10T16:00:00Z,26.4966,-82.1479,2.404,29.41,1111122 
SCCF RECON,ioos:station:SCCF:12:1,2008-10-10T17:00:00Z,26.4966,-82.1479,2.32,29.62,1111122 
SCCF RECON,ioos:station:SCCF:12:1,2008-10-10T18:00:00Z,26.4966,-82.1479,2.21,29.1,1111122 
SCCF RECON,ioos:station:SCCF:12:1,2008-10-10T19:00:00Z,26.4966,-82.1479,2.094,28.51,1111122 
SCCF RECON,ioos:station:SCCF:12:1,2008-10-10T20:00:00Z,26.4966,-82.1479,1.99,29.2,1111122 
SCCF RECON,ioos:station:SCCF:12:1,2008-10-10T21:00:00Z,26.4966,-82.1479,1.92,29.69,1111122 
SCCF RECON,ioos:station:SCCF:12:1,2008-10-10T22:00:00Z,26.4966,-82.1479,1.92,29.92,1111122 
SCCF RECON,ioos:station:SCCF:12:1,2008-10-10T23:00:00Z,26.4966,-82.1479,2.01,30.47,1111122 
SCCF RECON,ioos:station:SCCF:12:1,2008-10-11T00:00:00Z,26.4966,-82.1479,2.14,29.91,1111122 
SCCF RECON,ioos:station:SCCF:12:1,2008-10-11T01:00:00Z,26.4966,-82.1479,2.256,28.33,1111122 
SCCF RECON,ioos:station:SCCF:12:1,2008-10-11T02:00:00Z,26.4966,-82.1479,2.35,28.23,1111122 
SCCF RECON,ioos:station:SCCF:12:1,2008-10-11T03:00:00Z,26.4966,-82.1479,2.41,28.33,1111122 
SCCF RECON,ioos:station:SCCF:12:1,2008-10-11T04:00:00Z,26.4966,-82.1479,2.446,28.3,1111122 
SCCF RECON,ioos:station:SCCF:12:1,2008-10-11T05:00:00Z,26.4966,-82.1479,2.425,27.79,1111122 
SCCF RECON,ioos:station:SCCF:12:1,2008-10-11T06:00:00Z,26.4966,-82.1479,2.344,26.98,1111122 
SCCF RECON,ioos:station:SCCF:12:1,2008-10-11T07:00:00Z,26.4966,-82.1479,2.23,26.93,1111122 
SCCF RECON,ioos:station:SCCF:12:1,2008-10-11T08:00:00Z,26.4966,-82.1479,2.135,26.98,1111122 
SCCF RECON,ioos:station:SCCF:12:1,2008-10-11T09:00:00Z,26.4966,-82.1479,2.08,26.97,1111122 
SCCF RECON,ioos:station:SCCF:12:1,2008-10-11T10:00:00Z,26.4966,-82.1479,2.107,27.14,1111122 
SCCF RECON,ioos:station:SCCF:12:1,2008-10-11T11:00:00Z,26.4966,-82.1479,2.19,27.33,1111122 
SCCF RECON,ioos:station:SCCF:12:1,2008-10-11T12:00:00Z,26.4966,-82.1479,2.289,27.52,1111122 
SCCF RECON,ioos:station:SCCF:12:1,2008-10-11T13:00:00Z,26.4966,-82.1479,2.4,27.82,1111122 
SCCF RECON,ioos:station:SCCF:12:1,2008-10-11T14:00:00Z,26.4966,-82.1479,2.49,27.7,1111122 
SCCF RECON,ioos:station:SCCF:12:1,2008-10-11T15:00:00Z,26.4966,-82.1479,2.515,27.39,1111122 
SCCF RECON,ioos:station:SCCF:12:1,2008-10-11T16:00:00Z,26.4966,-82.1479,2.488,27.41,1111122 
SCCF RECON,ioos:station:SCCF:12:1,2008-10-11T17:00:00Z,26.4966,-82.1479,2.413,27.3,1111122 
SCCF RECON,ioos:station:SCCF:12:1,2008-10-11T18:00:00Z,26.4966,-82.1479,2.313,27.25,1111122 
SCCF RECON,ioos:station:SCCF:12:1,2008-10-11T19:00:00Z,26.4966,-82.1479,2.191,27.32,1111122 
SCCF RECON,ioos:station:SCCF:12:1,2008-10-11T20:00:00Z,26.4966,-82.1479,2.068,27.2,1111122 
SCCF RECON,ioos:station:SCCF:12:1,2008-10-11T21:00:00Z,26.4966,-82.1479,1.971,27.08,1111122 
SCCF RECON,ioos:station:SCCF:12:1,2008-10-11T22:00:00Z,26.4966,-82.1479,1.918,27.05,1111122 
SCCF RECON,ioos:station:SCCF:12:1,2008-10-11T23:00:00Z,26.4966,-82.1479,1.924,27.24,1111122 
SCCF RECON,ioos:station:SCCF:12:1,2008-10-12T00:00:00Z,26.4966,-82.1479,2.018,27.6,1111122 
SCCF RECON,ioos:station:SCCF:12:1,2008-10-12T01:00:00Z,26.4966,-82.1479,2.162,27.63,1111122 
SCCF RECON,ioos:station:SCCF:12:1,2008-10-12T02:00:00Z,26.4966,-82.1479,2.283,27.56,1111122 
SCCF RECON,ioos:station:SCCF:12:1,2008-10-12T03:00:00Z,26.4966,-82.1479,2.401,27.55,1111122 
SCCF RECON,ioos:station:SCCF:12:1,2008-10-12T04:00:00Z,26.4966,-82.1479,2.465,27.57,1111122 
SCCF RECON,ioos:station:SCCF:12:1,2008-10-12T05:00:00Z,26.4966,-82.1479,2.43,27.64,1111122 
SCCF RECON,ioos:station:SCCF:12:1,2008-10-12T06:00:00Z,26.4966,-82.1479,2.34,27.4,1111122 
SCCF RECON,ioos:station:SCCF:12:1,2008-10-12T07:00:00Z,26.4966,-82.1479,2.23,27.24,1111122 
SCCF RECON,ioos:station:SCCF:12:1,2008-10-12T08:00:00Z,26.4966,-82.1479,2.116,27.16,1111122 
SCCF RECON,ioos:station:SCCF:12:1,2008-10-12T09:00:00Z,26.4966,-82.1479,2.028,27.06,1111122 
SCCF RECON,ioos:station:SCCF:12:1,2008-10-12T10:00:00Z,26.4966,-82.1479,1.98,27.12,1111122 
SCCF RECON,ioos:station:SCCF:12:1,2008-10-12T11:00:00Z,26.4966,-82.1479,2.02,27.29,1111122 
SCCF RECON,ioos:station:SCCF:12:1,2008-10-12T12:00:00Z,26.4966,-82.1479,2.132,27.36,1111122 
SCCF RECON,ioos:station:SCCF:12:1,2008-10-12T13:00:00Z,26.4966,-82.1479,2.28,27.42,1111122 
SCCF RECON,ioos:station:SCCF:12:1,2008-10-12T14:00:00Z,26.4966,-82.1479,2.403,27.4,1111122 
SCCF RECON,ioos:station:SCCF:12:1,2008-10-12T15:00:00Z,26.4966,-82.1479,2.471,27.36,1111122 
SCCF RECON,ioos:station:SCCF:12:1,2008-10-12T16:00:00Z,26.4966,-82.1479,2.521,27.37,1111122 
SCCF RECON,ioos:station:SCCF:12:1,2008-10-12T17:00:00Z,26.4966,-82.1479,2.509,27.15,1111122 
SCCF RECON,ioos:station:SCCF:12:1,2008-10-12T18:00:00Z,26.4966,-82.1479,2.447,27.01,1111122 
SCCF RECON,ioos:station:SCCF:12:1,2008-10-12T19:00:00Z,26.4966,-82.1479,2.34,26.89,1111122 
SCCF RECON,ioos:station:SCCF:12:1,2008-10-12T20:00:00Z,26.4966,-82.1479,2.223,26.68,1111122 
SCCF RECON,ioos:station:SCCF:12:1,2008-10-12T21:00:00Z,26.4966,-82.1479,2.115,26.65,1111122 
SCCF RECON,ioos:station:SCCF:12:1,2008-10-12T22:00:00Z,26.4966,-82.1479,2.035,26.76,1111122 
SCCF RECON,ioos:station:SCCF:12:1,2008-10-12T23:00:00Z,26.4966,-82.1479,2.043,26.36,1111122 
SCCF RECON,ioos:station:SCCF:12:1,2008-10-13T00:00:00Z,26.4966,-82.1479,2.102,26.37,1111122 
SCCF RECON,ioos:station:SCCF:12:1,2008-10-13T01:00:00Z,26.4966,-82.1479,2.262,26.52,1111122 
SCCF RECON,ioos:station:SCCF:12:1,2008-10-13T02:00:00Z,26.4966,-82.1479,2.393,26.55,1111122 
SCCF RECON,ioos:station:SCCF:12:1,2008-10-13T03:00:00Z,26.4966,-82.1479,2.479,26.46,1111122 
SCCF RECON,ioos:station:SCCF:12:1,2008-10-13T04:00:00Z,26.4966,-82.1479,2.517,26.4,1111122 
SCCF RECON,ioos:station:SCCF:12:1,2008-10-13T05:00:00Z,26.4966,-82.1479,2.49,26.54,1111122 
SCCF RECON,ioos:station:SCCF:12:1,2008-10-13T06:00:00Z,26.4966,-82.1479,2.409,26.2,1111122 
SCCF RECON,ioos:station:SCCF:12:1,2008-10-13T07:00:00Z,26.4966,-82.1479,2.3,26.05,1111122 
SCCF RECON,ioos:station:SCCF:12:1,2008-10-13T08:00:00Z,26.4966,-82.1479,2.146,26.04,1111122 
SCCF RECON,ioos:station:SCCF:12:1,2008-10-13T09:00:00Z,26.4966,-82.1479,2.0,26.06,1111122 
SCCF RECON,ioos:station:SCCF:12:1,2008-10-13T10:00:00Z,26.4966,-82.1479,1.903,26.15,1111122 
SCCF RECON,ioos:station:SCCF:12:1,2008-10-13T11:00:00Z,26.4966,-82.1479,1.851,26.27,1111122 
SCCF RECON,ioos:station:SCCF:12:1,2008-10-13T12:00:00Z,26.4966,-82.1479,1.892,26.37,1111122 
SCCF RECON,ioos:station:SCCF:12:1,2008-10-13T13:00:00Z,26.4966,-82.1479,2.065,26.29,1111122 
SCCF RECON,ioos:station:SCCF:12:1,2008-10-13T14:00:00Z,26.4966,-82.1479,2.247,26.31,1111122 
SCCF RECON,ioos:station:SCCF:12:1,2008-10-13T15:00:00Z,26.4966,-82.1479,2.37,26.29,1111122 
SCCF RECON,ioos:station:SCCF:12:1,2008-10-13T16:00:00Z,26.4966,-82.1479,2.419,26.23,1111122 
SCCF RECON,ioos:station:SCCF:12:1,2008-10-13T17:00:00Z,26.4966,-82.1479,2.42,26.49,1111122 
SCCF RECON,ioos:station:SCCF:12:1,2008-10-13T18:00:00Z,26.4966,-82.1479,2.362,26.26,1111122 
SCCF RECON,ioos:station:SCCF:12:1,2008-10-13T19:00:00Z,26.4966,-82.1479,2.296,26.2,1111122 
SCCF RECON,ioos:station:SCCF:12:1,2008-10-13T20:00:00Z,26.4966,-82.1479,2.244,26.14,1111122 
SCCF RECON,ioos:station:SCCF:12:1,2008-10-13T21:00:00Z,26.4966,-82.1479,2.113,26.09,1111122 
SCCF RECON,ioos:station:SCCF:12:1,2008-10-13T22:00:00Z,26.4966,-82.1479,2.062,26.11,1111122 
SCCF RECON,ioos:station:SCCF:12:1,2008-10-13T23:00:00Z,26.4966,-82.1479,2.002,26.11,1111122 
SCCF RECON,ioos:station:SCCF:12:1,2008-10-14T00:00:00Z,26.4966,-82.1479,2.054,26.13,1111122 
SCCF RECON,ioos:station:SCCF:12:1,2008-10-14T01:00:00Z,26.4966,-82.1479,2.159,26.02,1111122 
SCCF RECON,ioos:station:SCCF:12:1,2008-10-14T02:00:00Z,26.4966,-82.1479,2.297,26.07,1111122 
SCCF RECON,ioos:station:SCCF:12:1,2008-10-14T03:00:00Z,26.4966,-82.1479,2.421,26.13,1111122 
SCCF RECON,ioos:station:SCCF:12:1,2008-10-14T04:00:00Z,26.4966,-82.1479,2.482,26.15,1111122 
SCCF RECON,ioos:station:SCCF:12:1,2008-10-14T05:00:00Z,26.4966,-82.1479,2.52,26.15,1111122 
SCCF RECON,ioos:station:SCCF:12:1,2008-10-14T06:00:00Z,26.4966,-82.1479,2.47,26.19,1111122 
SCCF RECON,ioos:station:SCCF:12:1,2008-10-14T07:00:00Z,26.4966,-82.1479,2.35,26.17,1111122 
SCCF RECON,ioos:station:SCCF:12:1,2008-10-14T08:00:00Z,26.4966,-82.1479,2.189,26.14,1111122 
SCCF RECON,ioos:station:SCCF:12:1,2008-10-14T09:00:00Z,26.4966,-82.1479,2.05,26.16,1111122 
SCCF RECON,ioos:station:SCCF:12:1,2008-10-14T10:00:00Z,26.4966,-82.1479,1.941,26.15,1111122 
SCCF RECON,ioos:station:SCCF:12:1,2008-10-14T11:00:00Z,26.4966,-82.1479,1.839,26.14,1111122 
SCCF RECON,ioos:station:SCCF:12:1,2008-10-14T12:00:00Z,26.4966,-82.1479,1.789,26.11,1111122 
SCCF RECON,ioos:station:SCCF:12:1,2008-10-14T13:00:00Z,26.4966,-82.1479,1.88,26.13,1111122 
SCCF RECON,ioos:station:SCCF:12:1,2008-10-14T14:00:00Z,26.4966,-82.1479,2.073,26.19,1111122 
SCCF RECON,ioos:station:SCCF:12:1,2008-10-14T15:00:00Z,26.4966,-82.1479,2.248,26.16,1111122 
SCCF RECON,ioos:station:SCCF:12:1,2008-10-14T16:00:00Z,26.4966,-82.1479,2.373,26.15,1111122 
SCCF RECON,ioos:station:SCCF:12:1,2008-10-14T17:00:00Z,26.4966,-82.1479,2.461,26.17,1111122 
SCCF RECON,ioos:station:SCCF:12:1,2008-10-14T18:00:00Z,26.4966,-82.1479,2.435,26.16,1111122 
SCCF RECON,ioos:station:SCCF:12:1,2008-10-14T19:00:00Z,26.4966,-82.1479,2.383,26.09,1111122 
SCCF RECON,ioos:station:SCCF:12:1,2008-10-14T20:00:00Z,26.4966,-82.1479,2.329,25.94,1111122 
SCCF RECON,ioos:station:SCCF:12:1,2008-10-14T21:00:00Z,26.4966,-82.1479,2.256,26.09,1111122 
SCCF RECON,ioos:station:SCCF:12:1,2008-10-14T22:00:00Z,26.4966,-82.1479,2.166,26.06,1111122 
SCCF RECON,ioos:station:SCCF:12:1,2008-10-14T23:00:00Z,26.4966,-82.1479,2.09,26.04,1111122 
SCCF RECON,ioos:station:SCCF:12:1,2008-10-15T00:00:00Z,26.4966,-82.1479,2.05,26.12,1111122 
SCCF RECON,ioos:station:SCCF:12:1,2008-10-15T01:00:00Z,26.4966,-82.1479,2.096,26.09,1111122 
SCCF RECON,ioos:station:SCCF:12:1,2008-10-15T02:00:00Z,26.4966,-82.1479,2.233,26.02,1111122 
SCCF RECON,ioos:station:SCCF:12:1,2008-10-15T03:00:00Z,26.4966,-82.1479,2.37,26.03,1111122 
SCCF RECON,ioos:station:SCCF:12:1,2008-10-15T04:00:00Z,26.4966,-82.1479,2.48,25.99,1111122 
SCCF RECON,ioos:station:SCCF:12:1,2008-10-15T05:00:00Z,26.4966,-82.1479,2.526,25.98,1111122 
SCCF RECON,ioos:station:SCCF:12:1,2008-10-15T06:00:00Z,26.4966,-82.1479,2.477,26.02,1111122 
SCCF RECON,ioos:station:SCCF:12:1,2008-10-15T07:00:00Z,26.4966,-82.1479,2.376,26.09,1111122 
SCCF RECON,ioos:station:SCCF:12:1,2008-10-15T08:00:00Z,26.4966,-82.1479,2.254,26.02,1111122 
SCCF RECON,ioos:station:SCCF:12:1,2008-10-15T09:00:00Z,26.4966,-82.1479,2.116,25.86,1111122 
SCCF RECON,ioos:station:SCCF:12:1,2008-10-15T10:00:00Z,26.4966,-82.1479,1.991,25.92,1111122 
SCCF RECON,ioos:station:SCCF:12:1,2008-10-15T11:00:00Z,26.4966,-82.1479,1.857,25.98,1111122 
SCCF RECON,ioos:station:SCCF:12:1,2008-10-15T12:00:00Z,26.4966,-82.1479,1.757,26.15,1111122 
SCCF RECON,ioos:station:SCCF:12:1,2008-10-15T13:00:00Z,26.4966,-82.1479,1.711,26.23,1111122 
SCCF RECON,ioos:station:SCCF:12:1,2008-10-15T14:00:00Z,26.4966,-82.1479,1.837,26.1,1111122 
SCCF RECON,ioos:station:SCCF:12:1,2008-10-15T15:00:00Z,26.4966,-82.1479,2.044,25.99,1111122 
SCCF RECON,ioos:station:SCCF:12:1,2008-10-15T16:00:00Z,26.4966,-82.1479,2.216,25.95,1111122 
SCCF RECON,ioos:station:SCCF:12:1,2008-10-15T17:00:00Z,26.4966,-82.1479,2.346,26.07,1111122 
SCCF RECON,ioos:station:SCCF:12:1,2008-10-15T18:00:00Z,26.4966,-82.1479,2.43,26.15,1111122 
SCCF RECON,ioos:station:SCCF:12:1,2008-10-15T19:00:00Z,26.4966,-82.1479,2.452,25.96,1111122 
SCCF RECON,ioos:station:SCCF:12:1,2008-10-15T20:00:00Z,26.4966,-82.1479,2.42,25.79,1111122 
SCCF RECON,ioos:station:SCCF:12:1,2008-10-15T21:00:00Z,26.4966,-82.1479,2.338,25.76,1111122 
SCCF RECON,ioos:station:SCCF:12:1,2008-10-15T22:00:00Z,26.4966,-82.1479,2.272,25.71,1111122 
SCCF RECON,ioos:station:SCCF:12:1,2008-10-15T23:00:00Z,26.4966,-82.1479,2.25,25.71,1111122 
SCCF RECON,ioos:station:SCCF:12:1,2008-10-16T00:00:00Z,26.4966,-82.1479,2.259,25.71,1111122 
SCCF RECON,ioos:station:SCCF:12:1,2008-10-16T01:00:00Z,26.4966,-82.1479,2.292,25.7,1111122 
SCCF RECON,ioos:station:SCCF:12:1,2008-10-16T02:00:00Z,26.4966,-82.1479,2.359,25.6,1111122 
SCCF RECON,ioos:station:SCCF:12:1,2008-10-16T03:00:00Z,26.4966,-82.1479,2.462,25.71,1111122 
SCCF RECON,ioos:station:SCCF:12:1,2008-10-16T04:00:00Z,26.4966,-82.1479,2.57,25.69,1111122 
SCCF RECON,ioos:station:SCCF:12:1,2008-10-16T05:00:00Z,26.4966,-82.1479,2.655,25.69,1111122 
SCCF RECON,ioos:station:SCCF:12:1,2008-10-16T06:00:00Z,26.4966,-82.1479,2.674,25.71,1111122 
SCCF RECON,ioos:station:SCCF:12:1,2008-10-16T07:00:00Z,26.4966,-82.1479,2.599,25.76,1111122 
SCCF RECON,ioos:station:SCCF:12:1,2008-10-16T08:00:00Z,26.4966,-82.1479,2.497,25.84,1111122 
SCCF RECON,ioos:station:SCCF:12:1,2008-10-16T09:00:00Z,26.4966,-82.1479,2.346,25.81,1111122 
SCCF RECON,ioos:station:SCCF:12:1,2008-10-16T10:00:00Z,26.4966,-82.1479,2.185,25.83,1111122 
SCCF RECON,ioos:station:SCCF:12:1,2008-10-16T11:00:00Z,26.4966,-82.1479,2.039,25.86,1111122 
SCCF RECON,ioos:station:SCCF:12:1,2008-10-16T12:00:00Z,26.4966,-82.1479,1.918,26.17,1111122 
SCCF RECON,ioos:station:SCCF:12:1,2008-10-16T13:00:00Z,26.4966,-82.1479,1.83,26.09,1111122 
SCCF RECON,ioos:station:SCCF:12:1,2008-10-16T14:00:00Z,26.4966,-82.1479,1.801,25.99,1111122 
SCCF RECON,ioos:station:SCCF:12:1,2008-10-16T15:00:00Z,26.4966,-82.1479,1.935,25.81,1111122 
SCCF RECON,ioos:station:SCCF:12:1,2008-10-16T16:00:00Z,26.4966,-82.1479,2.127,26.02,1111122 
SCCF RECON,ioos:station:SCCF:12:1,2008-10-16T17:00:00Z,26.4966,-82.1479,2.257,25.82,1111122 
SCCF RECON,ioos:station:SCCF:12:1,2008-10-16T18:00:00Z,26.4966,-82.1479,2.358,25.83,1111122 
SCCF RECON,ioos:station:SCCF:12:1,2008-10-16T19:00:00Z,26.4966,-82.1479,2.43,25.98,1111122 
SCCF RECON,ioos:station:SCCF:12:1,2008-10-16T20:00:00Z,26.4966,-82.1479,2.472,25.98,1111122 
SCCF RECON,ioos:station:SCCF:12:1,2008-10-16T21:00:00Z,26.4966,-82.1479,2.442,25.81,1111122 
SCCF RECON,ioos:station:SCCF:12:1,2008-10-16T22:00:00Z,26.4966,-82.1479,2.37,25.72,1111122 
SCCF RECON,ioos:station:SCCF:12:1,2008-10-16T23:00:00Z,26.4966,-82.1479,2.318,25.71,1111122 
SCCF RECON,ioos:station:SCCF:12:1,2008-10-17T00:00:00Z,26.4966,-82.1479,2.293,25.81,1111122 
SCCF RECON,ioos:station:SCCF:12:1,2008-10-17T01:00:00Z,26.4966,-82.1479,2.34,25.84,1111122 
SCCF RECON,ioos:station:SCCF:12:1,2008-10-17T02:00:00Z,26.4966,-82.1479,2.409,25.78,1111122 
SCCF RECON,ioos:station:SCCF:12:1,2008-10-17T03:00:00Z,26.4966,-82.1479,2.507,25.75,1111122 
SCCF RECON,ioos:station:SCCF:12:1,2008-10-17T04:00:00Z,26.4966,-82.1479,2.628,25.77,1111122 
SCCF RECON,ioos:station:SCCF:12:1,2008-10-17T05:00:00Z,26.4966,-82.1479,2.7,25.79,1111122 
SCCF RECON,ioos:station:SCCF:12:1,2008-10-17T06:00:00Z,26.4966,-82.1479,2.71,25.78,1111122 
SCCF RECON,ioos:station:SCCF:12:1,2008-10-17T07:00:00Z,26.4966,-82.1479,2.66,25.78,1111122 
SCCF RECON,ioos:station:SCCF:12:1,2008-10-17T08:00:00Z,26.4966,-82.1479,2.57,25.77,1111122 
SCCF RECON,ioos:station:SCCF:12:1,2008-10-17T09:00:00Z,26.4966,-82.1479,2.44,25.76,1111122 
SCCF RECON,ioos:station:SCCF:12:1,2008-10-17T10:00:00Z,26.4966,-82.1479,2.293,25.76,1111122 
SCCF RECON,ioos:station:SCCF:12:1,2008-10-17T11:00:00Z,26.4966,-82.1479,2.152,25.75,1111122 
SCCF RECON,ioos:station:SCCF:12:1,2008-10-17T12:00:00Z,26.4966,-82.1479,2.02,25.8,1111122 
SCCF RECON,ioos:station:SCCF:12:1,2008-10-17T13:00:00Z,26.4966,-82.1479,1.896,25.86,1111122 
SCCF RECON,ioos:station:SCCF:12:1,2008-10-17T14:00:00Z,26.4966,-82.1479,1.8,25.97,1111122 
SCCF RECON,ioos:station:SCCF:12:1,2008-10-17T15:00:00Z,26.4966,-82.1479,1.803,26.16,1111122 
SCCF RECON,ioos:station:SCCF:12:1,2008-10-17T16:00:00Z,26.4966,-82.1479,1.971,26.43,1111122 
SCCF RECON,ioos:station:SCCF:12:1,2008-10-17T17:00:00Z,26.4966,-82.1479,2.139,27.07,1111122 
SCCF RECON,ioos:station:SCCF:12:1,2008-10-17T18:00:00Z,26.4966,-82.1479,2.251,27.15,1111122 
SCCF RECON,ioos:station:SCCF:12:1,2008-10-17T19:00:00Z,26.4966,-82.1479,2.339,26.95,1111122 
SCCF RECON,ioos:station:SCCF:12:1,2008-10-17T20:00:00Z,26.4966,-82.1479,2.399,26.38,1111122 
SCCF RECON,ioos:station:SCCF:12:1,2008-10-17T21:00:00Z,26.4966,-82.1479,2.408,26.15,1111122 
SCCF RECON,ioos:station:SCCF:12:1,2008-10-17T22:00:00Z,26.4966,-82.1479,2.371,26.01,1111122 
SCCF RECON,ioos:station:SCCF:12:1,2008-10-17T23:00:00Z,26.4966,-82.1479,2.33,25.97,1111122 
SCCF RECON,ioos:station:SCCF:12:1,2008-10-18T00:00:00Z,26.4966,-82.1479,2.32,26.04,1111122 
SCCF RECON,ioos:station:SCCF:12:1,2008-10-18T01:00:00Z,26.4966,-82.1479,2.34,25.98,1111122 
SCCF RECON,ioos:station:SCCF:12:1,2008-10-18T02:00:00Z,26.4966,-82.1479,2.369,26.02,1111122 
SCCF RECON,ioos:station:SCCF:12:1,2008-10-18T03:00:00Z,26.4966,-82.1479,2.421,26.67,1111122 
SCCF RECON,ioos:station:SCCF:12:1,2008-10-18T04:00:00Z,26.4966,-82.1479,2.512,27.69,1111122 
SCCF RECON,ioos:station:SCCF:12:1,2008-10-18T05:00:00Z,26.4966,-82.1479,2.62,27.84,1111122 
SCCF RECON,ioos:station:SCCF:12:1,2008-10-18T06:00:00Z,26.4966,-82.1479,2.691,27.81,1111122 
SCCF RECON,ioos:station:SCCF:12:1,2008-10-18T07:00:00Z,26.4966,-82.1479,2.719,27.76,1111122 
SCCF RECON,ioos:station:SCCF:12:1,2008-10-18T08:00:00Z,26.4966,-82.1479,2.67,27.75,1111122 
SCCF RECON,ioos:station:SCCF:12:1,2008-10-18T09:00:00Z,26.4966,-82.1479,2.57,27.55,1111122 
SCCF RECON,ioos:station:SCCF:12:1,2008-10-18T10:00:00Z,26.4966,-82.1479,2.44,27.06,1111122 
SCCF RECON,ioos:station:SCCF:12:1,2008-10-18T11:00:00Z,26.4966,-82.1479,2.28,27.5,1111122 
SCCF RECON,ioos:station:SCCF:12:1,2008-10-18T12:00:00Z,26.4966,-82.1479,2.14,27.7,1111122 
SCCF RECON,ioos:station:SCCF:12:1,2008-10-18T13:00:00Z,26.4966,-82.1479,2.0,27.38,1111122 
SCCF RECON,ioos:station:SCCF:12:1,2008-10-18T14:00:00Z,26.4966,-82.1479,1.88,27.92,1111122 
SCCF RECON,ioos:station:SCCF:12:1,2008-10-18T15:00:00Z,26.4966,-82.1479,1.797,28.36,1111122 
SCCF RECON,ioos:station:SCCF:12:1,2008-10-18T16:00:00Z,26.4966,-82.1479,1.811,27.58,1111122 
SCCF RECON,ioos:station:SCCF:12:1,2008-10-18T17:00:00Z,26.4966,-82.1479,1.959,27.63,1111122 
SCCF RECON,ioos:station:SCCF:12:1,2008-10-18T18:00:00Z,26.4966,-82.1479,2.107,29.12,1111122 
SCCF RECON,ioos:station:SCCF:12:1,2008-10-18T19:00:00Z,26.4966,-82.1479,2.221,28.54,1111122 
SCCF RECON,ioos:station:SCCF:12:1,2008-10-18T20:00:00Z,26.4966,-82.1479,2.29,27.79,1111122 
SCCF RECON,ioos:station:SCCF:12:1,2008-10-18T21:00:00Z,26.4966,-82.1479,2.321,27.6,1111122 
SCCF RECON,ioos:station:SCCF:12:1,2008-10-18T22:00:00Z,26.4966,-82.1479,2.327,27.21,1111122 
SCCF RECON,ioos:station:SCCF:12:1,2008-10-18T23:00:00Z,26.4966,-82.1479,2.338,27.02,1111122 
SCCF RECON,ioos:station:SCCF:12:1,2008-10-19T00:00:00Z,26.4966,-82.1479,2.33,26.83,1111122 
SCCF RECON,ioos:station:SCCF:12:1,2008-10-19T01:00:00Z,26.4966,-82.1479,2.325,26.81,1111122 
SCCF RECON,ioos:station:SCCF:12:1,2008-10-19T02:00:00Z,26.4966,-82.1479,2.325,26.92,1111122 
SCCF RECON,ioos:station:SCCF:12:1,2008-10-19T03:00:00Z,26.4966,-82.1479,2.356,28.0,1111122 
SCCF RECON,ioos:station:SCCF:12:1,2008-10-19T04:00:00Z,26.4966,-82.1479,2.403,27.94,1111122 
SCCF RECON,ioos:station:SCCF:12:1,2008-10-19T05:00:00Z,26.4966,-82.1479,2.484,29.14,1111122 
SCCF RECON,ioos:station:SCCF:12:1,2008-10-19T06:00:00Z,26.4966,-82.1479,2.577,29.17,1111122 
SCCF RECON,ioos:station:SCCF:12:1,2008-10-19T07:00:00Z,26.4966,-82.1479,2.646,29.53,1111122 
SCCF RECON,ioos:station:SCCF:12:1,2008-10-19T08:00:00Z,26.4966,-82.1479,2.633,30.16,1111122 
SCCF RECON,ioos:station:SCCF:12:1,2008-10-19T09:00:00Z,26.4966,-82.1479,2.562,30.19,1111122 
SCCF RECON,ioos:station:SCCF:12:1,2008-10-19T10:00:00Z,26.4966,-82.1479,2.469,30.05,1111122 
SCCF RECON,ioos:station:SCCF:12:1,2008-10-19T11:00:00Z,26.4966,-82.1479,2.339,29.63,1111122 
SCCF RECON,ioos:station:SCCF:12:1,2008-10-19T12:00:00Z,26.4966,-82.1479,2.207,29.5,1111122 
SCCF RECON,ioos:station:SCCF:12:1,2008-10-19T13:00:00Z,26.4966,-82.1479,2.082,29.18,1111122 
SCCF RECON,ioos:station:SCCF:12:1,2008-10-19T14:00:00Z,26.4966,-82.1479,1.958,29.5,1111122 
SCCF RECON,ioos:station:SCCF:12:1,2008-10-19T15:00:00Z,26.4966,-82.1479,1.827,29.45,1111122 
SCCF RECON,ioos:station:SCCF:12:1,2008-10-19T16:00:00Z,26.4966,-82.1479,1.728,30.23,1111122 
SCCF RECON,ioos:station:SCCF:12:1,2008-10-19T17:00:00Z,26.4966,-82.1479,1.701,30.34,1111122 
SCCF RECON,ioos:station:SCCF:12:1,2008-10-19T18:00:00Z,26.4966,-82.1479,1.824,30.46,1111122 
SCCF RECON,ioos:station:SCCF:12:1,2008-10-19T19:00:00Z,26.4966,-82.1479,1.984,30.62,1111122 
SCCF RECON,ioos:station:SCCF:12:1,2008-10-19T20:00:00Z,26.4966,-82.1479,2.101,30.35,1111122 
SCCF RECON,ioos:station:SCCF:12:1,2008-10-19T21:00:00Z,26.4966,-82.1479,2.19,30.35,1111122 
SCCF RECON,ioos:station:SCCF:12:1,2008-10-19T22:00:00Z,26.4966,-82.1479,2.261,30.23,1111122 
SCCF RECON,ioos:station:SCCF:12:1,2008-10-19T23:00:00Z,26.4966,-82.1479,2.292,28.95,1111122 
SCCF RECON,ioos:station:SCCF:12:1,2008-10-20T00:00:00Z,26.4966,-82.1479,2.29,28.64,1111122 
SCCF RECON,ioos:station:SCCF:12:1,2008-10-20T01:00:00Z,26.4966,-82.1479,2.279,28.07,1111122 
SCCF RECON,ioos:station:SCCF:12:1,2008-10-20T02:00:00Z,26.4966,-82.1479,2.28,27.75,1111122 
SCCF RECON,ioos:station:SCCF:12:1,2008-10-20T03:00:00Z,26.4966,-82.1479,2.301,27.47,1111122 
SCCF RECON,ioos:station:SCCF:12:1,2008-10-20T04:00:00Z,26.4966,-82.1479,2.358,27.28,1111122 
SCCF RECON,ioos:station:SCCF:12:1,2008-10-20T05:00:00Z,26.4966,-82.1479,2.388,27.42,1111122 
SCCF RECON,ioos:station:SCCF:12:1,2008-10-20T06:00:00Z,26.4966,-82.1479,2.422,27.84,1111122 
SCCF RECON,ioos:station:SCCF:12:1,2008-10-20T07:00:00Z,26.4966,-82.1479,2.467,28.2,1111122 
SCCF RECON,ioos:station:SCCF:12:1,2008-10-20T08:00:00Z,26.4966,-82.1479,2.502,28.26,1111122 